Location: Deurze
(52.9838°N, 6.6090°E)
Time: 18:34:13
(UTC+00:00)

ERS-1 Rocket - Pass Details

Date: 11 March 2026
Orbit: 747 x 750 km, 98.2° (Epoch: 20 April)

Event Time Altitude Azimuth Distance (km) Brightness Sun altitude
Exits shadow 18:25:31 10° 114° (ESE) 2,270 4.8 -9.1°
Reaches altitude 10° 18:25:32 10° 114° (ESE) 2,268 4.8 -9.1°
Maximum altitude 18:29:37 26° 59° (ENE) 1,440 4.0 -9.7°
Drops below altitude 10° 18:33:44 10° 4° (N) 2,280 5.5 -10.3°
Sets 18:36:20 0° 352° (N) 3,208 6.4 -10.7°
